STARLINK-36780

Last updated on Mon Mar 23 2026 00:02:07 GMT+0000 (Coordinated Universal Time)

1 67866U 26034S 26080.92098776 .00442737 00000+0 21196-2 0 9999 2 67866 53.1583 149.9151 0000941 53.7568 306.3542 15.81015667 5871
UTC large
Height (km)
Speed (km/s)
/
Latitude / Longitude
Inclination (degrees)
Orbital Period (minutes)
Azimuth
Elevation
Range (km)
Doppler Factor

Next 0 passes for location: London (51.5072 / 0.1276)

Sorry there are no passes over London.